| time (UTC) | temp F | wind direction | speed MPH | gust MPH | rain 1hr in | rain 24hr in | rain mn in | humidity % | barometer mb |
| 20260510104847 | 46 | 340 | 0.0 | 0.0 | 0.00 | 0.00 | 0.00 | 99 | 1014.0 |
| 20260510104345 | 45 | 340 | 0.0 | 0.0 | 0.00 | 0.00 | 0.00 | 99 | 1014.0 |
| 20260510103840 | 45 | 340 | 0.0 | 0.0 | 0.00 | 0.00 | 0.00 | 98 | 1014.0 |
| 20260510103338 | 46 | 340 | 0.0 | 0.0 | 0.00 | 0.00 | 0.00 | 99 | 1014.3 |
| 20260510102833 | 46 | 340 | 0.0 | 0.0 | 0.00 | 0.00 | 0.00 | 99 | 1014.0 |
| 20260510102329 | 46 | 340 | 0.0 | 0.0 | 0.00 | 0.00 | 0.00 | 98 | 1014.0 |
| 20260510101827 | 46 | 340 | 0.0 | 0.0 | 0.00 | 0.00 | 0.00 | 98 | 1014.0 |
| 20260510101325 | 46 | 340 | 0.0 | 1.0 | 0.00 | 0.00 | 0.00 | 98 | 1014.0 |
| 20260510100820 | 46 | 340 | 0.0 | 0.0 | 0.00 | 0.00 | 0.00 | 98 | 1014.0 |
| 20260510100319 | 45 | 340 | 0.0 | 0.0 | 0.00 | 0.00 | 0.00 | 98 | 1014.0 |
| 20260510095814 | 45 | 340 | 0.0 | 0.0 | 0.00 | 0.00 | 0.00 | 97 | 1014.0 |
| 20260510095309 | 46 | 340 | 0.0 | 0.0 | 0.00 | 0.00 | 0.00 | 98 | 1013.7 |
| 20260510094808 | 47 | 340 | 0.0 | 0.0 | 0.00 | 0.00 | 0.00 | 98 | 1013.7 |
| 20260510094304 | 47 | 340 | 0.0 | 0.0 | 0.00 | 0.00 | 0.00 | 98 | 1013.7 |
| 20260510093800 | 47 | 340 | 0.0 | 0.0 | 0.00 | 0.00 | 0.00 | 98 | 1013.7 |
| 20260510093257 | 47 | 340 | 0.0 | 1.0 | 0.00 | 0.00 | 0.00 | 98 | 1013.7 |
| 20260510092753 | 46 | 340 | 0.0 | 0.0 | 0.00 | 0.00 | 0.00 | 98 | 1013.7 |
| 20260510092249 | 46 | 340 | 0.0 | 0.0 | 0.00 | 0.00 | 0.00 | 97 | 1013.7 |
| 20260510091744 | 46 | 340 | 0.0 | 3.0 | 0.00 | 0.00 | 0.00 | 97 | 1013.7 |
| 20260510091242 | 47 | 340 | 0.0 | 0.0 | 0.00 | 0.00 | 0.00 | 97 | 1013.7 |
| 20260510090738 | 47 | 340 | 0.0 | 0.0 | 0.00 | 0.00 | 0.00 | 97 | 1013.7 |
| 20260510090235 | 47 | 340 | 1.0 | 4.0 | 0.00 | 0.00 | 0.00 | 97 | 1013.7 |
| 20260510085730 | 46 | 340 | 0.0 | 0.0 | 0.00 | 0.00 | 0.00 | 97 | 1013.7 |
| 20260510085225 | 47 | 340 | 0.0 | 0.0 | 0.00 | 0.00 | 0.00 | 96 | 1013.3 |
| 20260510084721 | 47 | 340 | 0.0 | 0.0 | 0.00 | 0.00 | 0.00 | 95 | 1013.7 |
| 20260510084219 | 48 | 340 | 0.0 | 0.0 | 0.00 | 0.00 | 0.00 | 96 | 1013.3 |
| 20260510083715 | 48 | 340 | 0.0 | 0.0 | 0.00 | 0.00 | 0.00 | 95 | 1013.3 |
| 20260510083212 | 48 | 340 | 0.0 | 0.0 | 0.00 | 0.00 | 0.00 | 95 | 1013.3 |
| 20260510082708 | 48 | 340 | 0.0 | 0.0 | 0.00 | 0.00 | 0.00 | 95 | 1013.3 |
| 20260510082205 | 48 | 340 | 0.0 | 0.0 | 0.00 | 0.00 | 0.00 | 96 | 1013.3 |
| 20260510081659 | 47 | 340 | 0.0 | 1.0 | 0.00 | 0.00 | 0.00 | 96 | 1013.3 |
| 20260510081155 | 47 | 340 | 0.0 | 0.0 | 0.00 | 0.00 | 0.00 | 95 | 1013.3 |
| 20260510080655 | 48 | 340 | 0.0 | 0.0 | 0.00 | 0.00 | 0.00 | 95 | 1013.3 |
| 20260510080152 | 48 | 340 | 0.0 | 0.0 | 0.00 | 0.00 | 0.00 | 94 | 1013.0 |
| 20260510075649 | 48 | 340 | 1.0 | 4.0 | 0.00 | 0.00 | 0.00 | 94 | 1013.0 |
| 20260510075147 | 48 | 340 | 0.0 | 0.0 | 0.00 | 0.00 | 0.00 | 95 | 1013.0 |
| 20260510074643 | 48 | 340 | 0.0 | 0.0 | 0.00 | 0.00 | 0.00 | 94 | 1013.0 |
| 20260510074139 | 48 | 340 | 0.0 | 0.0 | 0.00 | 0.00 | 0.00 | 93 | 1013.0 |
| 20260510073635 | 49 | 340 | 0.0 | 0.0 | 0.00 | 0.00 | 0.00 | 93 | 1013.0 |
| 20260510073131 | 49 | 340 | 0.0 | 0.0 | 0.00 | 0.00 | 0.00 | 92 | 1013.0 |
| 20260510072627 | 49 | 340 | 0.0 | 0.0 | 0.00 | 0.00 | 0.00 | 92 | 1013.0 |
| 20260510072124 | 50 | 340 | 0.0 | 0.0 | 0.00 | 0.00 | 0.00 | 91 | 1013.0 |
| 20260510071620 | 50 | 340 | 0.0 | 0.0 | 0.00 | 0.00 | 0.00 | 90 | 1013.0 |
| 20260510071118 | 50 | 340 | 0.0 | 0.0 | 0.00 | 0.00 | 0.00 | 91 | 1013.0 |
| 20260510070615 | 50 | 340 | 1.0 | 4.0 | 0.00 | 0.00 | 0.00 | 93 | 1013.0 |
| 20260510070113 | 50 | 340 | 0.0 | 0.0 | 0.00 | 0.00 | 0.00 | 92 | 1013.0 |
| 20260510065609 | 50 | 340 | 0.0 | 0.0 | 0.00 | 0.00 | 0.00 | 91 | 1013.0 |
| 20260510065105 | 52 | 340 | 0.0 | 0.0 | 0.00 | 0.00 | 0.00 | 88 | 1013.0 |
| 20260510064601 | 53 | 340 | 0.0 | 0.0 | 0.00 | 0.00 | 0.00 | 86 | 1012.6 |
| 20260510064058 | 52 | 340 | 1.0 | 4.0 | 0.00 | 0.00 | 0.00 | 88 | 1013.0 |
| 20260510063555 | 51 | 340 | 2.0 | 4.0 | 0.00 | 0.00 | 0.00 | 90 | 1012.6 |
| 20260510063051 | 50 | 356 | 0.0 | 4.0 | 0.00 | 0.00 | 0.00 | 91 | 1013.0 |
| 20260510062547 | 50 | 356 | 0.0 | 0.0 | 0.00 | 0.00 | 0.00 | 91 | 1013.0 |
| 20260510062043 | 51 | 356 | 0.0 | 0.0 | 0.00 | 0.00 | 0.00 | 91 | 1013.0 |
| 20260510061539 | 52 | 356 | 0.0 | 0.0 | 0.00 | 0.00 | 0.00 | 90 | 1013.0 |
| 20260510061036 | 54 | 356 | 0.0 | 0.0 | 0.00 | 0.00 | 0.00 | 86 | 1012.6 |
| 20260510060532 | 55 | 356 | 0.0 | 1.0 | 0.00 | 0.00 | 0.00 | 79 | 1012.6 |
| 20260510060029 | 55 | 356 | 0.0 | 0.0 | 0.00 | 0.00 | 0.00 | 78 | 1012.6 |
| 20260510055525 | 55 | 349 | 3.0 | 6.0 | 0.00 | 0.00 | 0.00 | 81 | 1012.6 |
| 20260510055023 | 53 | 349 | 3.0 | 5.0 | 0.00 | 0.00 | 0.00 | 86 | 1012.6 |
| 20260510054519 | 53 | 278 | 0.0 | 0.0 | 0.00 | 0.00 | 0.00 | 86 | 1013.0 |
| 20260510054014 | 53 | 278 | 0.0 | 0.0 | 0.00 | 0.00 | 0.00 | 87 | 1013.0 |
| 20260510053508 | 54 | 278 | 0.0 | 0.0 | 0.00 | 0.00 | 0.00 | 87 | 1013.0 |
| 20260510053006 | 54 | 278 | 0.0 | 0.0 | 0.00 | 0.00 | 0.00 | 85 | 1012.6 |
| 20260510052502 | 52 | 320 | 0.0 | 4.0 | 0.00 | 0.00 | 0.00 | 88 | 1012.6 |
| 20260510051958 | 51 | 231 | 0.0 | 1.0 | 0.00 | 0.00 | 0.00 | 91 | 1012.6 |
| 20260510051454 | 51 | 231 | 0.0 | 4.0 | 0.00 | 0.00 | 0.00 | 91 | 1012.6 |
| 20260510050950 | 51 | 305 | 7.0 | 8.0 | 0.00 | 0.00 | 0.00 | 93 | 1012.6 |
| 20260510050448 | 51 | 334 | 1.0 | 4.0 | 0.00 | 0.00 | 0.00 | 93 | 1012.6 |
| 20260510045945 | 51 | 320 | 0.0 | 2.0 | 0.00 | 0.00 | 0.00 | 92 | 1012.6 |
| 20260510045442 | 52 | 320 | 0.0 | 4.0 | 0.00 | 0.00 | 0.00 | 92 | 1012.6 |
| 20260510044938 | 51 | 320 | 2.0 | 4.0 | 0.00 | 0.00 | 0.00 | 92 | 1012.6 |
| 20260510044435 | 52 | 351 | 0.0 | 0.0 | 0.00 | 0.00 | 0.00 | 92 | 1012.6 |
| 20260510043932 | 52 | 351 | 2.0 | 6.0 | 0.00 | 0.00 | 0.00 | 93 | 1012.6 |
| 20260510043428 | 52 | 289 | 0.0 | 0.0 | 0.00 | 0.00 | 0.00 | 94 | 1012.6 |
| 20260510042926 | 52 | 127 | 1.0 | 3.0 | 0.00 | 0.00 | 0.00 | 94 | 1012.6 |
| 20260510042422 | 52 | 141 | 0.0 | 0.0 | 0.00 | 0.00 | 0.00 | 94 | 1012.6 |
| 20260510041918 | 52 | 141 | 0.0 | 0.0 | 0.00 | 0.00 | 0.00 | 93 | 1013.0 |
| 20260510041415 | 53 | 141 | 0.0 | 3.0 | 0.00 | 0.00 | 0.00 | 93 | 1013.0 |
| 20260510040913 | 53 | 141 | 2.0 | 4.0 | 0.00 | 0.00 | 0.00 | 92 | 1012.6 |
| 20260510040409 | 53 | 142 | 2.0 | 4.0 | 0.00 | 0.00 | 0.00 | 89 | 1012.6 |
| 20260510035905 | 54 | 332 | 0.0 | 0.0 | 0.00 | 0.00 | 0.00 | 84 | 1012.6 |
| 20260510035401 | 55 | 332 | 2.0 | 4.0 | 0.00 | 0.00 | 0.00 | 82 | 1012.6 |
| 20260510034856 | 54 | 333 | 4.0 | 5.0 | 0.00 | 0.00 | 0.00 | 83 | 1012.6 |
| 20260510034355 | 53 | 321 | 4.0 | 6.0 | 0.00 | 0.00 | 0.00 | 88 | 1012.6 |
| 20260510033851 | 52 | 338 | 3.0 | 4.0 | 0.00 | 0.00 | 0.00 | 91 | 1012.6 |
| 20260510033348 | 52 | 340 | 1.0 | 5.0 | 0.00 | 0.00 | 0.00 | 91 | 1012.6 |
| 20260510032844 | 53 | 352 | 0.0 | 0.0 | 0.00 | 0.00 | 0.00 | 89 | 1012.6 |
| 20260510032341 | 56 | 352 | 0.0 | 0.0 | 0.00 | 0.00 | 0.00 | 85 | 1012.6 |
| 20260510031836 | 57 | 352 | 3.0 | 5.0 | 0.00 | 0.00 | 0.00 | 80 | 1012.6 |
| 20260510031332 | 55 | 334 | 3.0 | 4.0 | 0.00 | 0.00 | 0.00 | 83 | 1012.6 |
| 20260510030832 | 54 | 320 | 3.0 | 4.0 | 0.00 | 0.00 | 0.00 | 88 | 1012.6 |
| 20260510030328 | 54 | 320 | 2.0 | 4.0 | 0.00 | 0.00 | 0.00 | 89 | 1012.6 |
| 20260510025826 | 53 | 285 | 1.0 | 3.0 | 0.00 | 0.00 | 0.00 | 91 | 1012.6 |
| 20260510025323 | 53 | 327 | 0.0 | 0.0 | 0.00 | 0.00 | 0.00 | 92 | 1012.6 |
| 20260510024820 | 54 | 327 | 0.0 | 0.0 | 0.00 | 0.00 | 0.00 | 93 | 1012.6 |
| 20260510024317 | 54 | 327 | 0.0 | 0.0 | 0.00 | 0.00 | 0.00 | 93 | 1012.3 |
| 20260510023813 | 54 | 327 | 0.0 | 0.0 | 0.00 | 0.00 | 0.00 | 93 | 1012.6 |
| 20260510023310 | 54 | 327 | 0.0 | 0.0 | 0.00 | 0.00 | 0.00 | 93 | 1012.3 |
| 20260510022807 | 54 | 327 | 0.0 | 0.0 | 0.00 | 0.00 | 0.00 | 93 | 1012.3 |
| 20260510022307 | 54 | 327 | 0.0 | 0.0 | 0.00 | 0.00 | 0.00 | 93 | 1012.3 |
| 20260510021805 | 55 | 327 | 0.0 | 0.0 | 0.00 | 0.00 | 0.00 | 93 | 1012.3 |
| 20260510021304 | 55 | 327 | 2.0 | 4.0 | 0.00 | 0.00 | 0.00 | 93 | 1012.0 |
| 20260510020800 | 55 | 327 | 0.0 | 0.0 | 0.00 | 0.00 | 0.00 | 93 | 1012.0 |
| 20260510020259 | 55 | 327 | 0.0 | 0.0 | 0.00 | 0.00 | 0.00 | 92 | 1012.0 |
| 20260510015756 | 56 | 327 | 0.0 | 0.0 | 0.00 | 0.00 | 0.00 | 92 | 1012.0 |
| 20260510015252 | 57 | 327 | 0.0 | 0.0 | 0.00 | 0.00 | 0.00 | 91 | 1011.6 |
| 20260510014747 | 57 | 327 | 0.0 | 0.0 | 0.00 | 0.00 | 0.00 | 90 | 1011.6 |
| 20260510014244 | 58 | 327 | 0.0 | 0.0 | 0.00 | 0.00 | 0.00 | 88 | 1011.6 |
| 20260510013740 | 58 | 327 | 0.0 | 0.0 | 0.00 | 0.00 | 0.00 | 86 | 1011.6 |
| 20260510013236 | 59 | 327 | 0.0 | 0.0 | 0.00 | 0.00 | 0.00 | 85 | 1011.3 |
| 20260510012731 | 59 | 327 | 0.0 | 0.0 | 0.00 | 0.00 | 0.00 | 84 | 1011.3 |
| 20260510012226 | 59 | 327 | 0.0 | 0.0 | 0.00 | 0.00 | 0.00 | 84 | 1011.3 |
| 20260510011727 | 59 | 327 | 0.0 | 0.0 | 0.00 | 0.00 | 0.00 | 86 | 1011.3 |
| 20260510011222 | 59 | 327 | 0.0 | 0.0 | 0.00 | 0.00 | 0.00 | 86 | 1011.3 |
| 20260510010719 | 59 | 327 | 0.0 | 0.0 | 0.00 | 0.00 | 0.00 | 84 | 1010.9 |
| 20260510010215 | 60 | 327 | 0.0 | 0.0 | 0.00 | 0.00 | 0.00 | 83 | 1010.9 |
| 20260510005712 | 60 | 327 | 0.0 | 3.0 | 0.00 | 0.00 | 0.00 | 86 | 1010.9 |
| 20260510005208 | 60 | 327 | 0.0 | 3.0 | 0.00 | 0.00 | 0.00 | 85 | 1010.9 |
| 20260510004707 | 60 | 327 | 1.0 | 3.0 | 0.00 | 0.00 | 0.00 | 84 | 1010.9 |
| 20260510004204 | 61 | 327 | 0.0 | 0.0 | 0.00 | 0.00 | 0.00 | 83 | 1010.9 |
| 20260510003702 | 62 | 327 | 0.0 | 0.0 | 0.00 | 0.00 | 0.00 | 81 | 1010.9 |
| 20260510003157 | 62 | 327 | 0.0 | 4.0 | 0.00 | 0.00 | 0.00 | 81 | 1010.5 |
| 20260510002657 | 62 | 327 | 1.0 | 3.0 | 0.00 | 0.00 | 0.00 | 82 | 1010.5 |
| 20260510002154 | 62 | 295 | 0.0 | 3.0 | 0.00 | 0.00 | 0.00 | 81 | 1010.5 |
| 20260510001651 | 62 | 295 | 1.0 | 3.0 | 0.00 | 0.00 | 0.00 | 81 | 1010.5 |
| 20260510001145 | 63 | 295 | 1.0 | 3.0 | 0.00 | 0.00 | 0.00 | 81 | 1010.5 |
| 20260510000645 | 63 | 248 | 0.0 | 0.0 | 0.00 | 0.00 | 0.00 | 79 | 1010.2 |
| 20260510000142 | 64 | 248 | 0.0 | 0.0 | 0.00 | 0.00 | 0.00 | 78 | 1010.2 |
| 20260509235638 | 65 | 248 | 0.0 | 0.0 | 0.00 | 0.00 | 0.00 | 76 | 1010.2 |
| 20260509235135 | 66 | 248 | 0.0 | 0.0 | 0.00 | 0.00 | 0.00 | 74 | 1010.2 |
| 20260509234631 | 67 | 248 | 0.0 | 0.0 | 0.00 | 0.00 | 0.00 | 72 | 1010.2 |
| 20260509234129 | 68 | 248 | 0.0 | 0.0 | 0.00 | 0.00 | 0.00 | 70 | 1009.8 |
| 20260509233626 | 69 | 248 | 0.0 | 0.0 | 0.00 | 0.00 | 0.00 | 70 | 1009.8 |
| 20260509233123 | 70 | 248 | 0.0 | 0.0 | 0.00 | 0.00 | 0.00 | 67 | 1009.8 |
| 20260509232619 | 71 | 248 | 0.0 | 0.0 | 0.00 | 0.00 | 0.00 | 66 | 1009.8 |
| 20260509232116 | 71 | 248 | 0.0 | 0.0 | 0.00 | 0.00 | 0.00 | 62 | 1009.8 |
| 20260509231613 | 71 | 248 | 2.0 | 2.0 | 0.00 | 0.00 | 0.00 | 60 | 1009.8 |
| 20260509231111 | 72 | 248 | 2.0 | 2.0 | 0.00 | 0.00 | 0.00 | 58 | 1009.8 |
| 20260509230608 | 73 | 248 | 2.0 | 5.0 | 0.00 | 0.00 | 0.00 | 53 | 1009.8 |
| 20260509230105 | 73 | 248 | 0.0 | 0.0 | 0.00 | 0.00 | 0.00 | 53 | 1009.8 |
| 20260509225600 | 73 | 248 | 4.0 | 4.0 | 0.00 | 0.00 | 0.00 | 51 | 1009.8 |
| 20260509225055 | 74 | 228 | 3.0 | 4.0 | 0.00 | 0.00 | 0.00 | 51 | 1009.8 |
| 20260509224551 | 74 | 176 | 0.0 | 2.0 | 0.00 | 0.00 | 0.00 | 50 | 1009.8 |
| 20260509224048 | 74 | 239 | 0.0 | 3.0 | 0.00 | 0.00 | 0.00 | 52 | 1009.8 |
| 20260509223545 | 74 | 239 | 1.0 | 4.0 | 0.00 | 0.00 | 0.00 | 51 | 1009.8 |
| 20260509223043 | 74 | 239 | 5.0 | 6.0 | 0.00 | 0.00 | 0.00 | 51 | 1009.8 |
| 20260509222539 | 74 | 205 | 1.0 | 4.0 | 0.00 | 0.00 | 0.00 | 50 | 1009.8 |
| 20260509222036 | 74 | 225 | 4.0 | 7.0 | 0.00 | 0.00 | 0.00 | 50 | 1009.8 |
| 20260509221531 | 75 | 221 | 4.0 | 7.0 | 0.00 | 0.00 | 0.00 | 51 | 1009.8 |
| 20260509221027 | 75 | 213 | 4.0 | 5.0 | 0.00 | 0.00 | 0.00 | 50 | 1009.5 |
| 20260509220523 | 75 | 238 | 6.0 | 7.0 | 0.00 | 0.00 | 0.00 | 49 | 1009.8 |
| 20260509220019 | 76 | 182 | 2.0 | 3.0 | 0.00 | 0.00 | 0.00 | 50 | 1009.5 |
| 20260509215514 | 75 | 254 | 6.0 | 9.0 | 0.00 | 0.00 | 0.00 | 50 | 1009.5 |
| 20260509215012 | 75 | 224 | 5.0 | 9.0 | 0.00 | 0.00 | 0.00 | 50 | 1009.5 |
| 20260509214509 | 75 | 241 | 3.0 | 4.0 | 0.00 | 0.00 | 0.00 | 49 | 1009.5 |
| 20260509214006 | 75 | 228 | 4.0 | 6.0 | 0.00 | 0.00 | 0.00 | 49 | 1009.5 |
| 20260509213502 | 76 | 208 | 5.0 | 7.0 | 0.00 | 0.00 | 0.00 | 48 | 1009.5 |
| 20260509213000 | 76 | 154 | 2.0 | 5.0 | 0.00 | 0.00 | 0.00 | 48 | 1009.5 |
| 20260509212457 | 76 | 185 | 2.0 | 5.0 | 0.00 | 0.00 | 0.00 | 48 | 1009.5 |
| 20260509211954 | 76 | 174 | 2.0 | 4.0 | 0.00 | 0.00 | 0.00 | 48 | 1009.5 |
| 20260509211449 | 75 | 191 | 3.0 | 4.0 | 0.00 | 0.00 | 0.00 | 49 | 1009.5 |
| 20260509210946 | 73 | 249 | 1.0 | 4.0 | 0.00 | 0.00 | 0.00 | 54 | 1009.5 |
| 20260509210443 | 73 | 234 | 3.0 | 6.0 | 0.00 | 0.00 | 0.00 | 53 | 1009.5 |
| 20260509205938 | 72 | 164 | 3.0 | 4.0 | 0.00 | 0.00 | 0.00 | 52 | 1009.8 |
| 20260509205433 | 73 | 182 | 4.0 | 8.0 | 0.00 | 0.00 | 0.00 | 52 | 1009.5 |
| 20260509204929 | 73 | 222 | 3.0 | 6.0 | 0.00 | 0.00 | 0.00 | 52 | 1009.5 |
| 20260509204425 | 73 | 241 | 3.0 | 5.0 | 0.00 | 0.00 | 0.00 | 54 | 1009.5 |
| 20260509203922 | 72 | 213 | 3.0 | 5.0 | 0.00 | 0.00 | 0.00 | 53 | 1009.5 |
| 20260509203418 | 73 | 220 | 4.0 | 6.0 | 0.00 | 0.00 | 0.00 | 53 | 1009.5 |
| 20260509202916 | 74 | 247 | 7.0 | 9.0 | 0.00 | 0.00 | 0.00 | 50 | 1009.2 |
| 20260509202412 | 76 | 188 | 4.0 | 6.0 | 0.00 | 0.00 | 0.00 | 50 | 1009.2 |
| 20260509201907 | 75 | 203 | 2.0 | 3.0 | 0.00 | 0.00 | 0.00 | 50 | 1009.2 |
| 20260509201402 | 75 | 252 | 8.0 | 13.0 | 0.00 | 0.00 | 0.00 | 49 | 1009.2 |
| 20260509200859 | 75 | 216 | 7.0 | 12.0 | 0.00 | 0.00 | 0.00 | 50 | 1009.2 |
| 20260509200359 | 74 | 241 | 8.0 | 11.0 | 0.00 | 0.00 | 0.00 | 49 | 1009.2 |
| 20260509195856 | 76 | 258 | 8.0 | 12.0 | 0.00 | 0.00 | 0.00 | 50 | 1009.2 |
| 20260509195356 | 73 | 237 | 5.0 | 6.0 | 0.00 | 0.00 | 0.00 | 53 | 1009.2 |
| 20260509194851 | 73 | 225 | 4.0 | 8.0 | 0.00 | 0.00 | 0.00 | 52 | 1009.5 |
| 20260509194347 | 74 | 237 | 6.0 | 8.0 | 0.00 | 0.00 | 0.00 | 51 | 1009.2 |
| 20260509193844 | 73 | 237 | 5.0 | 6.0 | 0.00 | 0.00 | 0.00 | 51 | 1009.5 |
| 20260509193343 | 73 | 221 | 6.0 | 9.0 | 0.00 | 0.00 | 0.00 | 51 | 1009.5 |
| 20260509192840 | 74 | 243 | 5.0 | 7.0 | 0.00 | 0.00 | 0.00 | 51 | 1009.8 |
| 20260509192336 | 74 | 204 | 6.0 | 9.0 | 0.00 | 0.00 | 0.00 | 50 | 1009.5 |
| 20260509191831 | 73 | 228 | 5.0 | 8.0 | 0.00 | 0.00 | 0.00 | 52 | 1009.8 |
| 20260509191327 | 72 | 226 | 4.0 | 7.0 | 0.00 | 0.00 | 0.00 | 51 | 1009.8 |
| 20260509190823 | 73 | 203 | 5.0 | 6.0 | 0.00 | 0.00 | 0.00 | 50 | 1009.8 |
| 20260509190321 | 74 | 243 | 5.0 | 9.0 | 0.00 | 0.00 | 0.00 | 50 | 1009.8 |
| 20260509185818 | 74 | 170 | 4.0 | 6.0 | 0.00 | 0.00 | 0.00 | 49 | 1009.8 |
| 20260509185309 | 72 | 213 | 2.0 | 5.0 | 0.00 | 0.00 | 0.00 | 53 | 1009.8 |
| 20260509184806 | 72 | 190 | 2.0 | 4.0 | 0.00 | 0.00 | 0.00 | 53 | 1010.2 |
| 20260509184304 | 73 | 198 | 2.0 | 4.0 | 0.00 | 0.00 | 0.00 | 52 | 1010.2 |
| 20260509183800 | 75 | 190 | 4.0 | 7.0 | 0.00 | 0.00 | 0.00 | 50 | 1010.2 |
| 20260509183255 | 75 | 217 | 4.0 | 7.0 | 0.00 | 0.00 | 0.00 | 52 | 1009.8 |
| 20260509182751 | 76 | 188 | 4.0 | 7.0 | 0.00 | 0.00 | 0.00 | 48 | 1009.8 |
| 20260509182249 | 77 | 225 | 4.0 | 7.0 | 0.00 | 0.00 | 0.00 | 49 | 1009.8 |
| 20260509181746 | 77 | 177 | 3.0 | 5.0 | 0.00 | 0.00 | 0.00 | 47 | 1009.8 |
| 20260509181243 | 76 | 208 | 1.0 | 6.0 | 0.00 | 0.00 | 0.00 | 51 | 1009.8 |
| 20260509180740 | 74 | 144 | 2.0 | 6.0 | 0.00 | 0.00 | 0.00 | 52 | 1010.2 |
| 20260509180237 | 73 | 235 | 3.0 | 5.0 | 0.00 | 0.00 | 0.00 | 52 | 1010.2 |
| 20260509175733 | 74 | 177 | 2.0 | 6.0 | 0.00 | 0.00 | 0.00 | 51 | 1010.5 |
| 20260509175229 | 75 | 170 | 4.0 | 6.0 | 0.00 | 0.00 | 0.00 | 52 | 1010.2 |
| 20260509174725 | 73 | 239 | 5.0 | 7.0 | 0.00 | 0.00 | 0.00 | 53 | 1010.5 |
| 20260509174221 | 73 | 246 | 9.0 | 10.0 | 0.00 | 0.00 | 0.00 | 54 | 1010.5 |
| 20260509173717 | 72 | 224 | 9.0 | 12.0 | 0.00 | 0.00 | 0.00 | 54 | 1010.5 |
| 20260509173213 | 73 | 193 | 4.0 | 7.0 | 0.00 | 0.00 | 0.00 | 55 | 1010.9 |
| 20260509172709 | 73 | 217 | 2.0 | 4.0 | 0.00 | 0.00 | 0.00 | 56 | 1010.9 |
| 20260509172206 | 73 | 262 | 7.0 | 10.0 | 0.00 | 0.00 | 0.00 | 57 | 1010.9 |
| 20260509171701 | 71 | 258 | 6.0 | 7.0 | 0.00 | 0.00 | 0.00 | 58 | 1011.3 |
| 20260509171157 | 73 | 280 | 4.0 | 6.0 | 0.00 | 0.00 | 0.00 | 58 | 1011.3 |
| 20260509170655 | 69 | 255 | 3.0 | 4.0 | 0.00 | 0.00 | 0.00 | 60 | 1011.6 |
| 20260509170151 | 69 | 248 | 2.0 | 4.0 | 0.00 | 0.00 | 0.00 | 60 | 1012.0 |
| 20260509165649 | 69 | 260 | 5.0 | 8.0 | 0.00 | 0.00 | 0.00 | 62 | 1012.0 |
| 20260509165144 | 69 | 269 | 5.0 | 6.0 | 0.00 | 0.00 | 0.00 | 60 | 1012.0 |
| 20260509164641 | 69 | 248 | 3.0 | 5.0 | 0.00 | 0.00 | 0.00 | 60 | 1011.6 |
| 20260509164137 | 69 | 241 | 4.0 | 5.0 | 0.00 | 0.00 | 0.00 | 59 | 1011.6 |
| 20260509163634 | 68 | 221 | 4.0 | 7.0 | 0.00 | 0.00 | 0.00 | 61 | 1011.6 |
| 20260509163130 | 69 | 251 | 4.0 | 6.0 | 0.00 | 0.00 | 0.00 | 60 | 1011.6 |
| 20260509162627 | 68 | 248 | 0.0 | 0.0 | 0.00 | 0.00 | 0.00 | 59 | 1011.6 |
| 20260509162123 | 68 | 243 | 7.0 | 9.0 | 0.00 | 0.00 | 0.00 | 59 | 1011.6 |
| 20260509161620 | 68 | 238 | 4.0 | 6.0 | 0.00 | 0.00 | 0.00 | 60 | 1011.6 |
| 20260509161114 | 67 | 248 | 5.0 | 8.0 | 0.00 | 0.00 | 0.00 | 62 | 1012.0 |
| 20260509160611 | 66 | 201 | 2.0 | 4.0 | 0.00 | 0.00 | 0.00 | 62 | 1012.3 |
| 20260509160106 | 67 | 224 | 5.0 | 7.0 | 0.00 | 0.00 | 0.00 | 62 | 1012.0 |
| 20260509155603 | 65 | 230 | 2.0 | 4.0 | 0.00 | 0.00 | 0.00 | 64 | 1012.3 |
| 20260509155059 | 64 | 230 | 4.0 | 6.0 | 0.00 | 0.00 | 0.00 | 66 | 1012.3 |
| 20260509154555 | 64 | 230 | 2.0 | 3.0 | 0.00 | 0.00 | 0.00 | 65 | 1012.3 |
| 20260509154053 | 64 | 246 | 5.0 | 7.0 | 0.00 | 0.00 | 0.00 | 64 | 1012.3 |
| 20260509153549 | 64 | 246 | 3.0 | 5.0 | 0.00 | 0.00 | 0.00 | 64 | 1012.0 |
| 20260509153046 | 64 | 221 | 3.0 | 4.0 | 0.00 | 0.00 | 0.00 | 65 | 1012.3 |
| 20260509152542 | 64 | 243 | 4.0 | 5.0 | 0.00 | 0.00 | 0.00 | 66 | 1012.3 |
| 20260509152039 | 64 | 243 | 0.0 | 2.0 | 0.00 | 0.00 | 0.00 | 64 | 1012.3 |
| 20260509151530 | 65 | 248 | 4.0 | 6.0 | 0.00 | 0.00 | 0.00 | 64 | 1012.3 |
| 20260509151028 | 65 | 155 | 1.0 | 2.0 | 0.00 | 0.00 | 0.00 | 65 | 1012.6 |
| 20260509150525 | 64 | 155 | 0.0 | 0.0 | 0.00 | 0.00 | 0.00 | 66 | 1012.6 |
| 20260509150024 | 62 | 155 | 0.0 | 2.0 | 0.00 | 0.00 | 0.00 | 67 | 1012.6 |
| 20260509145524 | 62 | 155 | 1.0 | 3.0 | 0.00 | 0.00 | 0.00 | 66 | 1012.6 |
| 20260509145019 | 62 | 155 | 2.0 | 4.0 | 0.00 | 0.00 | 0.00 | 66 | 1012.6 |
| 20260509144516 | 62 | 155 | 0.0 | 2.0 | 0.00 | 0.00 | 0.00 | 66 | 1012.6 |
| 20260509144014 | 63 | 155 | 0.0 | 3.0 | 0.00 | 0.00 | 0.00 | 65 | 1012.6 |
| 20260509143510 | 62 | 155 | 0.0 | 0.0 | 0.00 | 0.00 | 0.00 | 64 | 1012.6 |
| 20260509143009 | 62 | 155 | 2.0 | 3.0 | 0.00 | 0.00 | 0.00 | 65 | 1012.3 |
| 20260509142504 | 62 | 161 | 0.0 | 0.0 | 0.00 | 0.00 | 0.00 | 67 | 1012.3 |
| 20260509141959 | 60 | 161 | 1.0 | 2.0 | 0.00 | 0.00 | 0.00 | 69 | 1012.0 |
| 20260509141455 | 59 | 161 | 1.0 | 2.0 | 0.00 | 0.00 | 0.00 | 70 | 1012.3 |
| 20260509140953 | 58 | 161 | 0.0 | 0.0 | 0.00 | 0.00 | 0.00 | 71 | 1012.6 |
| 20260509140449 | 58 | 161 | 1.0 | 2.0 | 0.00 | 0.00 | 0.00 | 71 | 1012.6 |
| 20260509135947 | 57 | 161 | 1.0 | 2.0 | 0.00 | 0.00 | 0.00 | 71 | 1012.6 |
| 20260509135444 | 58 | 338 | 0.0 | 0.0 | 0.00 | 0.00 | 0.00 | 70 | 1013.0 |
| 20260509134941 | 58 | 338 | 0.0 | 0.0 | 0.00 | 0.00 | 0.00 | 69 | 1013.0 |
| 20260509134439 | 58 | 338 | 0.0 | 0.0 | 0.00 | 0.00 | 0.00 | 71 | 1013.0 |
| 20260509133936 | 57 | 338 | 0.0 | 0.0 | 0.00 | 0.00 | 0.00 | 72 | 1013.0 |
| 20260509133432 | 57 | 338 | 0.0 | 0.0 | 0.00 | 0.00 | 0.00 | 72 | 1013.0 |
| 20260509132931 | 56 | 338 | 0.0 | 0.0 | 0.00 | 0.00 | 0.00 | 75 | 1013.0 |
| 20260509132429 | 55 | 338 | 0.0 | 0.0 | 0.00 | 0.00 | 0.00 | 75 | 1013.3 |
| 20260509131925 | 55 | 338 | 0.0 | 0.0 | 0.00 | 0.00 | 0.00 | 73 | 1013.3 |
| 20260509131423 | 54 | 338 | 0.0 | 0.0 | 0.00 | 0.00 | 0.00 | 77 | 1013.3 |
| 20260509130919 | 54 | 338 | 0.0 | 0.0 | 0.00 | 0.00 | 0.00 | 77 | 1013.3 |
| 20260509130414 | 53 | 338 | 0.0 | 0.0 | 0.00 | 0.00 | 0.00 | 79 | 1013.3 |
| 20260509125912 | 53 | 338 | 0.0 | 0.0 | 0.00 | 0.00 | 0.00 | 80 | 1013.3 |
| 20260509125409 | 53 | 338 | 0.0 | 0.0 | 0.00 | 0.00 | 0.00 | 81 | 1013.3 |
| 20260509124904 | 53 | 338 | 0.0 | 0.0 | 0.00 | 0.00 | 0.00 | 81 | 1013.7 |
| 20260509124402 | 52 | 338 | 0.0 | 0.0 | 0.00 | 0.00 | 0.00 | 82 | 1013.7 |
| 20260509123859 | 52 | 338 | 0.0 | 0.0 | 0.00 | 0.00 | 0.00 | 82 | 1013.7 |
| 20260509123356 | 52 | 338 | 0.0 | 0.0 | 0.00 | 0.00 | 0.00 | 82 | 1013.7 |
| 20260509122852 | 52 | 338 | 0.0 | 0.0 | 0.00 | 0.00 | 0.00 | 80 | 1013.7 |
| 20260509122349 | 52 | 338 | 0.0 | 0.0 | 0.00 | 0.00 | 0.00 | 81 | 1013.7 |
| 20260509121846 | 52 | 338 | 0.0 | 0.0 | 0.00 | 0.00 | 0.00 | 83 | 1013.7 |
| 20260509121343 | 51 | 338 | 0.0 | 0.0 | 0.00 | 0.00 | 0.00 | 82 | 1013.7 |
| 20260509120841 | 51 | 338 | 0.0 | 0.0 | 0.00 | 0.00 | 0.00 | 80 | 1013.7 |
| 20260509120339 | 51 | 338 | 0.0 | 0.0 | 0.00 | 0.00 | 0.00 | 81 | 1013.7 |
| 20260509115837 | 50 | 338 | 0.0 | 0.0 | 0.00 | 0.00 | 0.00 | 83 | 1013.7 |
| 20260509115333 | 50 | 338 | 0.0 | 0.0 | 0.00 | 0.00 | 0.00 | 87 | 1013.7 |
| 20260509114831 | 49 | 338 | 0.0 | 0.0 | 0.00 | 0.00 | 0.00 | 93 | 1013.3 |
| 20260509114330 | 49 | 338 | 0.0 | 0.0 | 0.00 | 0.00 | 0.00 | 96 | 1013.7 |
| 20260509113829 | 48 | 338 | 0.0 | 0.0 | 0.00 | 0.00 | 0.00 | 96 | 1013.3 |
| 20260509113325 | 47 | 338 | 0.0 | 0.0 | 0.00 | 0.00 | 0.00 | 97 | 1013.7 |
| 20260509112822 | 47 | 338 | 0.0 | 0.0 | 0.00 | 0.00 | 0.00 | 96 | 1013.3 |
| 20260509112319 | 46 | 338 | 0.0 | 0.0 | 0.00 | 0.00 | 0.00 | 96 | 1013.3 |
| 20260509111816 | 46 | 338 | 0.0 | 0.0 | 0.00 | 0.00 | 0.00 | 97 | 1013.3 |
| 20260509111313 | 46 | 338 | 0.0 | 0.0 | 0.00 | 0.00 | 0.00 | 97 | 1013.3 |
| 20260509110811 | 45 | 338 | 0.0 | 0.0 | 0.00 | 0.00 | 0.00 | 97 | 1013.0 |
| 20260509110307 | 45 | 338 | 0.0 | 0.0 | 0.00 | 0.00 | 0.00 | 97 | 1013.0 |
| 20260509105805 | 44 | 338 | 0.0 | 0.0 | 0.00 | 0.00 | 0.00 | 97 | 1013.0 |
| 20260509105306 | 44 | 338 | 0.0 | 0.0 | 0.00 | 0.00 | 0.00 | 96 | 1013.0 |